Preview of NWS' New Version of Forecast
This preview is not operational and should not be used for support decisions.

Regional Weather Roundup (RWR)

Issued by Philadelphia/Mt Holly (PHI)

                            
000
ASUS41 KPHI 251712
RWRPHI

REGIONAL WEATHER ROUNDUP
NATIONAL WEATHER SERVICE MOUNT HOLLY NJ
100 PM EDT SAT MAY 25 2019

NOTE:  "FAIR" INDICATES FEW OR NO CLOUDS BELOW 12,000 FEET WITH NO
SIGNIFICANT WEATHER AND/OR OBSTRUCTIONS TO VISIBILITY.

 * = STATION DOES NOT REPORT PRECIPITATION (E.G. RAIN, SNOW, ETC.) 
        OR FOG.

NJZ015>026-251800-
SOUTHERN NEW JERSEY
  
CITY           SKY/WX    TMP DP  RH WIND       PRES   REMARKS
POMONA         FAIR      69  50  50 SE10      30.25F                  
WILDWOOD*      PTSUNNY   70  55  59 SE13      30.25F                  
MILLVILLE      PTSUNNY   69  52  54 S9        30.23F                  
WRIGHTSTOWN    PTSUNNY   71  51  48 S7        30.20F                  
MOUNT HOLLY    CLOUDY    71  54  54 VRB3      30.22F                  
TRENTON        CLOUDY    68  54  60 S9        30.21F                  

$$
NJZ001>014-251800-
NORTHERN NEW JERSEY
  
CITY           SKY/WX    TMP DP  RH WIND       PRES   REMARKS
SUSSEX         CLOUDY    69  56  62 SW8       30.21F                  
ANDOVER*         N/A     67  52  58 SW10      30.20F                  
MORRISTOWN     PTSUNNY   68  55  64 W8G17     30.22F                  
NEWARK         PTSUNNY   68  50  52 SE9       30.22F                  
TETERBORO      PTSUNNY   69  51  52 S6G16     30.21F                  
CALDWELL       CLOUDY    71  51  49 W9        30.21F                  
SOMERVILLE     CLOUDY    69  53  56 S9        30.20F                  
ALLAIRE*       CLOUDY    67  49  52 SE14      30.24F                  

$$
PAZ043-044-047-054-055-060>062-066>071-251800-
EASTERN PENNSYLVANIA
  
CITY           SKY/WX    TMP DP  RH WIND       PRES   REMARKS
PHILADELPHIA   CLOUDY    70  52  52 S9        30.22F                  
NORTH PHILA    CLOUDY    71  53  52 VRB6      30.22F                  
BLUE BELL*     CLOUDY    69  54  58 S7        30.22F                  
DOYLESTOWN     CLOUDY    68  53  58 MISG      30.21F                  
QUAKERTOWN*    PTSUNNY   68  55  64 VRB5      30.21                   
PERKASIE*      CLOUDY    66  54  63 S6        30.22F                  
POTTSTOWN      PTSUNNY   68  54  60 VRB5      30.22F                  
LANCASTER      PTSUNNY   72  58  61 S8        30.19F                  
COATESVILLE    PTSUNNY   68  57  68 SE9G16    30.22F                  
WEST CHESTER   CLOUDY    68  54  60 S5        30.22F                  
READING        PTSUNNY   70  58  65 S9G16     30.18F                  
ALLENTOWN      CLOUDY    69  53  56 S8        30.20F                  
QN CITY/ALNTWN PTSUNNY   68  54  60 S12       30.21F                  
MOUNT POCONO   CLOUDY    61  52  72 S10       30.20F                  
HAZLETON       PTSUNNY   64  52  63 S5        30.21F                  
LEHIGHTON      CLOUDY    68  54  60 S6        30.20F                  
WILKES BARRE   CLOUDY    66  54  65 VRB7      30.16F                  

$$
DEZALL-MDZ008-012-015-019-020-251800-
DELAWARE AND EASTERN MARYLAND
  
CITY           SKY/WX    TMP DP  RH WIND       PRES   REMARKS
WILMINGTON     CLOUDY    68  53  58 S16       30.23F                  
DOVER          CLOUDY    68  58  69 SE12      30.22F                  
CHESWOLD         N/A     68  59  73 VRB7      30.23S                  
GEORGETOWN     CLOUDY    71  56  58 SE9       30.23F                  
EASTON         MOSUNNY   73  59  60 SE9       30.24F                  
STEVENSVILLE   PTSUNNY   73  59  60 S13       30.20F                  
PATUXENT       FAIR      75  63  66 SE14      30.20                   
OCEAN CITY     CLOUDY    67  58  72 SE9       30.24F                  
WALLOPS ISLAND CLOUDY    71  60  68 E9        30.24S                  
CAMBRIDGE      CLOUDY    73  59  60 VRB7      30.20F                  
SALISBURY      CLOUDY    71  58  63 SE13      30.22S                  

$$
PAZ001-021-NYZ056-072-MDZ011-DCZ001-251800-
OTHER NEARBY LOCATIONS
  
CITY           SKY/WX    TMP DP  RH WIND       PRES   REMARKS
HARRISBURG     PTSUNNY   72  57  59 S8        30.16F                  
STATE COLLEGE  SUNNY     73  59  60 S8        30.12F                  
WILLIAMSPORT   FAIR      73  55  53 SE18G28   30.11F                  
BINGHAMTON     CLOUDY    60  53  77 S9        30.13F                  
NEW YORK CITY  FAIR      70  50  49 MISG      30.25F                  
BALTIMORE      FAIR      74  59  59 SE15G21   30.18F                  
WASHINGTON DC  PTSUNNY   78  59  51 S10       30.17F                  

$$